| time (UTC) | temp F | wind direction | speed MPH | gust MPH | rain 1hr in | rain 24hr in | rain mn in | humidity % | barometer mb |
| 20260506201519 | 67 | 288 | 0.0 | 0.0 | 0.00 | 0.21 | 0.21 | 80 | 1008.5 |
| 20260506200014 | 67 | 228 | 0.0 | 2.0 | 0.00 | 0.21 | 0.21 | 80 | 1008.4 |
| 20260506194509 | 67 | 269 | 0.0 | 3.0 | 0.00 | 0.21 | 0.21 | 80 | 1008.3 |
| 20260506193026 | 66 | 217 | 1.0 | 3.0 | 0.00 | 0.21 | 0.21 | 80 | 1008.5 |
| 20260506191527 | 66 | 243 | 0.0 | 2.0 | 0.00 | 0.21 | 0.21 | 82 | 1008.4 |
| 20260506190023 | 65 | 176 | 1.0 | 4.0 | 0.00 | 0.21 | 0.21 | 82 | 1008.6 |
| 20260506184521 | 64 | 206 | 0.0 | 2.0 | 0.00 | 0.21 | 0.21 | 84 | 1008.7 |
| 20260506183018 | 64 | 257 | 0.0 | 3.0 | 0.00 | 0.21 | 0.21 | 84 | 1008.8 |
| 20260506181510 | 63 | 205 | 1.0 | 3.0 | 0.00 | 0.21 | 0.21 | 84 | 1008.8 |
| 20260506180013 | 63 | 239 | 0.0 | 3.0 | 0.00 | 0.21 | 0.21 | 85 | 1009.0 |
| 20260506174508 | 62 | 229 | 1.0 | 3.0 | 0.00 | 0.21 | 0.21 | 86 | 1009.2 |
| 20260506173013 | 62 | 208 | 1.0 | 3.0 | 0.00 | 0.21 | 0.21 | 87 | 1009.1 |
| 20260506171503 | 61 | 139 | 1.0 | 4.0 | 0.00 | 0.21 | 0.21 | 88 | 1009.0 |
| 20260506170019 | 61 | 273 | 1.0 | 4.0 | 0.00 | 0.21 | 0.21 | 89 | 1009.2 |
| 20260506164516 | 60 | 239 | 0.0 | 4.0 | 0.00 | 0.21 | 0.21 | 90 | 1009.1 |
| 20260506163016 | 60 | 207 | 1.0 | 3.0 | 0.01 | 0.21 | 0.21 | 91 | 1009.3 |
| 20260506161508 | 60 | 212 | 0.0 | 3.0 | 0.01 | 0.21 | 0.21 | 91 | 1009.1 |
| 20260506160008 | 59 | 143 | 0.0 | 3.0 | 0.01 | 0.21 | 0.21 | 91 | 1009.3 |
| 20260506154503 | 59 | 188 | 1.0 | 3.0 | 0.03 | 0.21 | 0.21 | 92 | 1009.4 |
| 20260506153021 | 59 | 220 | 0.0 | 3.0 | 0.05 | 0.20 | 0.20 | 92 | 1009.3 |
| 20260506151516 | 58 | 162 | 1.0 | 3.0 | 0.06 | 0.20 | 0.20 | 92 | 1009.4 |
| 20260506150014 | 58 | 119 | 1.0 | 4.0 | 0.07 | 0.20 | 0.20 | 92 | 1009.4 |
| 20260506144512 | 58 | 208 | 1.0 | 3.0 | 0.07 | 0.18 | 0.18 | 92 | 1010.2 |
| 20260506143008 | 59 | 198 | 0.0 | 2.0 | 0.05 | 0.15 | 0.15 | 92 | 1010.1 |
| 20260506141529 | 59 | 222 | 0.0 | 4.0 | 0.06 | 0.14 | 0.14 | 92 | 1009.8 |
| 20260506140025 | 59 | 155 | 0.0 | 2.0 | 0.07 | 0.13 | 0.13 | 91 | 1009.8 |
| 20260506134521 | 59 | 110 | 0.0 | 1.0 | 0.06 | 0.11 | 0.11 | 91 | 1010.1 |
| 20260506133018 | 59 | 146 | 0.0 | 2.0 | 0.07 | 0.10 | 0.10 | 91 | 1010.3 |
| 20260506131516 | 59 | 239 | 0.0 | 0.0 | 0.08 | 0.08 | 0.08 | 91 | 1010.5 |
| 20260506130012 | 59 | 198 | 0.0 | 0.0 | 0.06 | 0.06 | 0.06 | 90 | 1010.3 |
| 20260506124524 | 59 | 198 | 0.0 | 0.0 | 0.05 | 0.05 | 0.05 | 89 | 1010.2 |
| 20260506123025 | 60 | 205 | 0.0 | 0.0 | 0.03 | 0.03 | 0.03 | 87 | 1010.2 |
| 20260506121523 | 61 | 228 | 0.0 | 2.0 | 0.00 | 0.00 | 0.00 | 84 | 1010.4 |
| 20260506120022 | 62 | 192 | 0.0 | 2.0 | 0.00 | 0.00 | 0.00 | 79 | 1010.7 |
| 20260506114517 | 62 | 208 | 0.0 | 2.0 | 0.00 | 0.00 | 0.00 | 77 | 1010.7 |
| 20260506113014 | 63 | 274 | 0.0 | 3.0 | 0.00 | 0.00 | 0.00 | 76 | 1010.4 |
| 20260506111528 | 63 | 196 | 0.0 | 4.0 | 0.00 | 0.00 | 0.00 | 76 | 1010.1 |
| 20260506110027 | 63 | 204 | 1.0 | 2.0 | 0.00 | 0.00 | 0.00 | 75 | 1010.0 |
| 20260506104527 | 63 | 224 | 0.0 | 5.0 | 0.00 | 0.00 | 0.00 | 74 | 1009.8 |
| 20260506103029 | 64 | 228 | 1.0 | 2.0 | 0.00 | 0.00 | 0.00 | 71 | 1009.6 |
| 20260506101533 | 64 | 229 | 0.0 | 3.0 | 0.00 | 0.00 | 0.00 | 70 | 1009.4 |
| 20260506100028 | 64 | 200 | 1.0 | 4.0 | 0.00 | 0.00 | 0.00 | 69 | 1009.3 |
| 20260506094528 | 65 | 107 | 1.0 | 4.0 | 0.00 | 0.00 | 0.00 | 68 | 1009.3 |
| 20260506093038 | 65 | 201 | 1.0 | 3.0 | 0.00 | 0.00 | 0.00 | 67 | 1009.5 |
| 20260506091526 | 65 | 165 | 1.0 | 3.0 | 0.00 | 0.00 | 0.00 | 66 | 1009.5 |
| 20260506090003 | 66 | 233 | 1.0 | 3.0 | 0.00 | 0.00 | 0.00 | 65 | 1009.5 |
| 20260506084520 | 66 | 249 | 1.0 | 4.0 | 0.00 | 0.00 | 0.00 | 64 | 1009.6 |
| 20260506083021 | 66 | 236 | 1.0 | 5.0 | 0.00 | 0.00 | 0.00 | 63 | 1009.8 |
| 20260506081515 | 66 | 200 | 1.0 | 4.0 | 0.00 | 0.00 | 0.00 | 63 | 1009.7 |
| 20260506073037 | 67 | 225 | 2.0 | 3.0 | 0.00 | 0.00 | 0.00 | 60 | 1009.6 |
| 20260506071526 | 67 | 243 | 1.0 | 4.0 | 0.00 | 0.00 | 0.00 | 60 | 1009.7 |
| 20260506061514 | 68 | 221 | 0.0 | 3.0 | 0.00 | 0.00 | 0.00 | 57 | 1010.5 |
| 20260506044542 | 70 | 224 | 1.0 | 4.0 | 0.00 | 0.00 | 0.00 | 53 | 1011.0 |
| 20260506043029 | 70 | 164 | 1.0 | 4.0 | 0.00 | 0.00 | 0.00 | 51 | 1010.9 |
| 20260506041526 | 70 | 201 | 2.0 | 5.0 | 0.00 | 0.00 | 0.00 | 50 | 1010.9 |
| 20260506040028 | 70 | 208 | 0.0 | 2.0 | 0.00 | 0.00 | 0.00 | 50 | 1010.9 |
| 20260506034543 | 71 | 191 | 1.0 | 5.0 | 0.00 | 0.00 | 0.00 | 48 | 1010.8 |
| 20260506033024 | 71 | 198 | 1.0 | 3.0 | 0.00 | 0.00 | 0.00 | 47 | 1010.9 |
| 20260506031519 | 71 | 198 | 1.0 | 5.0 | 0.00 | 0.00 | 0.00 | 46 | 1010.9 |
| 20260506030029 | 71 | 207 | 0.0 | 3.0 | 0.00 | 0.00 | 0.00 | 45 | 1010.8 |
| 20260506024510 | 72 | 196 | 1.0 | 3.0 | 0.00 | 0.00 | 0.00 | 43 | 1010.8 |
| 20260506023009 | 72 | 228 | 1.0 | 3.0 | 0.00 | 0.00 | 0.00 | 43 | 1010.9 |
| 20260506021506 | 72 | 134 | 1.0 | 2.0 | 0.00 | 0.00 | 0.00 | 41 | 1010.8 |
| 20260506020024 | 72 | 228 | 0.0 | 0.0 | 0.00 | 0.00 | 0.00 | 40 | 1010.9 |
| 20260506014527 | 72 | 153 | 0.0 | 0.0 | 0.00 | 0.00 | 0.00 | 39 | 1010.7 |
| 20260506013016 | 72 | 196 | 0.0 | 0.0 | 0.00 | 0.00 | 0.00 | 38 | 1010.6 |
| 20260506011517 | 73 | 195 | 0.0 | 0.0 | 0.00 | 0.00 | 0.00 | 37 | 1010.5 |
| 20260506010009 | 73 | 202 | 0.0 | 0.0 | 0.00 | 0.00 | 0.00 | 36 | 1010.4 |
| 20260506004516 | 73 | 188 | 0.0 | 0.0 | 0.00 | 0.00 | 0.00 | 36 | 1010.2 |
| 20260506003037 | 74 | 222 | 0.0 | 0.0 | 0.00 | 0.00 | 0.00 | 34 | 1010.0 |
| 20260506001524 | 75 | 183 | 0.0 | 0.0 | 0.00 | 0.00 | 0.00 | 33 | 1009.8 |
| 20260506000015 | 75 | 234 | 0.0 | 2.0 | 0.00 | 0.00 | 0.00 | 34 | 1009.6 |
| 20260505234525 | 76 | 207 | 1.0 | 4.0 | 0.00 | 0.00 | 0.00 | 31 | 1009.6 |
| 20260505233013 | 77 | 251 | 1.0 | 5.0 | 0.00 | 0.00 | 0.00 | 30 | 1009.5 |
| 20260505231526 | 77 | 250 | 2.0 | 6.0 | 0.00 | 0.00 | 0.00 | 29 | 1009.5 |
| 20260505230036 | 77 | 230 | 1.0 | 3.0 | 0.00 | 0.00 | 0.00 | 32 | 1009.4 |
| 20260505224524 | 77 | 158 | 1.0 | 2.0 | 0.00 | 0.00 | 0.00 | 34 | 1009.4 |
| 20260505223020 | 78 | 200 | 1.0 | 4.0 | 0.00 | 0.00 | 0.00 | 32 | 1009.6 |
| 20260505221519 | 78 | 209 | 1.0 | 2.0 | 0.00 | 0.00 | 0.00 | 33 | 1009.6 |
| 20260505220023 | 78 | 141 | 1.0 | 3.0 | 0.00 | 0.00 | 0.00 | 36 | 1009.6 |
| 20260505214535 | 79 | 127 | 0.0 | 3.0 | 0.00 | 0.00 | 0.00 | 32 | 1009.4 |
| 20260505213027 | 79 | 135 | 1.0 | 5.0 | 0.00 | 0.00 | 0.00 | 31 | 1009.4 |
| 20260505211524 | 80 | 205 | 1.0 | 5.0 | 0.00 | 0.00 | 0.00 | 30 | 1009.3 |
| 20260505210022 | 80 | 210 | 0.0 | 6.0 | 0.00 | 0.00 | 0.00 | 32 | 1009.2 |
| 20260505204520 | 80 | 278 | 2.0 | 6.0 | 0.00 | 0.00 | 0.00 | 28 | 1009.2 |
| 20260505203002 | 81 | 165 | 2.0 | 5.0 | 0.00 | 0.00 | 0.00 | 29 | 1009.2 |